Theta_e
285 284 283 283 283 282 281 280 280 281 282 282 281 281 280 280 278 277 276 276 276 275 275 275 275 276 278 278 277 278 280 283 286 287 286 287 290 293 294 294 293 292 293 293 293 294 297 300 301 301 302 302 306 312 314 314 315 317 317 316 316 317 316 316 317 316 317 318 319 320 320 319 317 316 317 317 317 317 316 315 316 314 310 309 312
284 284 283 283 282 281 280 279 280 282 283 282 281 280 279 278 277 276 275 276 275 275 275 275 274 275 277 278 277 277 278 283 286 286 285 286 289 292 293 294 293 292 292 293 293 294 296 299 301 301 301 302 305 311 313 313 314 316 317 317 317 317 317 316 316 316 316 317 318 319 319 319 318 317 317 316 316 317 316 315 315 313 311 311 312
284 283 283 282 281 280 279 279 281 282 283 282 281 280 279 277 276 274 274 274 275 275 275 275 274 275 276 277 277 277 279 282 285 285 285 286 289 291 292 293 293 292 292 293 293 293 295 298 301 301 301 302 304 309 313 313 314 315 315 316 317 317 317 316 316 316 316 316 317 318 319 318 318 317 317 316 316 317 316 315 315 313 312 311 311
283 283 282 282 281 280 279 280 281 282 282 281 279 278 278 277 275 273 273 273 273 273 274 274 273 274 276 277 277 277 278 281 284 285 285 285 288 291 291 292 293 292 292 293 293 294 294 296 300 301 301 302 303 308 313 313 313 314 314 315 317 317 316 316 316 316 316 316 316 317 318 318 317 318 318 317 316 317 316 315 314 313 312 312 311
283 283 282 281 281 279 279 280 281 282 282 281 279 278 278 276 274 273 273 272 272 272 272 272 272 272 274 275 276 276 277 280 283 285 285 285 288 290 291 291 292 292 293 293 293 293 293 295 299 301 301 301 303 308 312 313 313 314 314 314 315 316 316 316 316 316 316 316 316 316 317 317 317 318 318 317 317 316 316 315 314 313 312 312 310
283 282 281 280 280 279 279 280 281 282 282 281 279 277 276 274 271 272 274 273 271 271 271 271 271 271 272 273 274 275 277 280 283 285 286 285 287 290 291 291 292 292 292 292 292 293 293 294 297 300 301 301 303 308 312 313 313 314 314 314 315 315 315 315 316 316 316 316 316 316 316 316 317 317 317 317 316 316 315 315 313 312 312 311 311
282 281 280 280 279 279 279 280 281 282 281 280 279 277 276 276 273 271 272 272 271 271 271 271 271 271 271 273 273 275 277 280 282 284 286 286 286 289 291 292 292 292 292 292 292 292 292 293 296 299 301 301 303 308 312 313 313 313 313 314 314 314 314 315 315 316 316 316 316 316 316 315 316 317 317 316 316 315 315 315 313 311 311 311 312
281 281 280 279 279 279 280 280 281 282 281 280 280 278 277 276 275 271 269 270 271 272 272 271 271 270 271 272 272 273 276 280 282 284 285 286 286 288 290 291 291 292 291 292 292 293 292 293 296 299 301 301 303 307 312 313 313 313 313 313 314 314 314 314 314 315 315 315 315 315 316 314 314 316 316 315 315 315 315 315 312 310 310 310 312
281 280 280 280 279 279 280 281 281 281 281 280 279 278 275 273 273 273 271 270 271 272 272 271 271 271 271 272 272 272 274 278 282 284 284 285 285 286 288 289 290 290 291 291 292 293 292 293 295 298 300 301 302 306 311 313 313 313 313 313 313 314 314 314 314 314 314 314 314 314 314 314 314 315 316 315 314 315 315 314 312 311 311 311 313
280 280 280 279 279 279 280 281 281 281 280 280 279 279 277 276 274 273 273 272 271 271 272 272 271 272 272 273 273 273 273 276 280 283 284 284 285 285 287 289 289 290 291 292 293 293 293 293 295 298 300 302 302 305 310 313 313 313 313 313 313 314 314 313 313 313 313 313 313 313 313 313 314 316 316 315 314 315 314 313 312 312 313 313 315
280 280 279 279 278 279 280 280 281 281 281 280 280 279 277 276 274 272 272 272 273 273 272 272 272 272 273 273 273 273 274 277 281 283 284 284 284 284 286 288 289 290 291 291 292 293 293 293 295 298 300 302 303 304 308 312 313 313 313 313 313 314 314 313 313 313 313 312 312 313 313 314 315 316 316 315 315 314 314 313 312 312 313 314 315
279 279 279 278 278 278 280 280 281 281 281 281 280 279 277 275 274 273 273 272 272 273 273 273 273 274 274 274 274 274 275 277 281 283 283 283 283 283 285 287 289 290 290 291 292 293 293 293 295 297 300 302 302 303 307 311 311 311 313 313 313 314 314 314 314 313 313 313 312 313 314 314 315 316 315 315 315 314 313 313 311 311 313 314 314
279 279 279 278 278 278 280 280 281 281 281 281 280 279 278 276 274 274 274 274 273 273 274 274 274 275 275 275 275 275 276 278 280 282 282 283 283 283 284 285 287 289 290 291 292 293 293 293 294 297 300 301 302 303 306 310 311 311 312 313 313 313 314 314 314 314 314 314 313 312 313 314 314 314 314 315 315 314 313 313 311 310 311 313 314
279 279 279 278 277 279 280 280 281 281 281 281 280 279 277 275 274 274 274 274 274 274 274 275 275 276 275 275 275 276 277 279 280 281 281 281 282 283 283 284 286 287 289 290 291 292 293 293 293 296 299 301 302 304 306 310 312 312 312 313 312 313 313 313 314 314 314 314 314 314 313 314 314 314 314 315 315 313 312 313 312 310 311 313 314
279 278 278 277 277 279 280 280 281 281 281 281 280 279 276 275 274 274 273 274 274 274 275 276 277 277 277 276 275 276 278 280 280 281 281 281 282 283 283 284 285 286 288 289 291 292 293 293 293 294 298 301 303 305 306 308 312 312 311 312 313 313 313 313 313 314 314 314 314 315 314 314 314 314 315 315 314 312 311 312 312 311 311 312 313
278 278 278 277 277 278 280 280 281 281 281 281 279 278 276 275 274 273 273 274 275 275 276 277 277 278 278 277 277 276 278 280 281 281 281 281 282 282 283 283 284 285 287 289 290 291 292 292 292 293 297 301 303 304 305 308 311 312 311 312 313 313 313 313 313 314 314 314 314 314 315 314 314 314 315 315 313 311 311 312 312 311 311 312 313
278 277 277 277 277 278 279 280 280 280 280 280 279 277 275 274 274 273 272 273 275 276 276 277 278 279 279 279 278 278 279 280 281 281 282 281 281 281 282 283 283 285 286 288 290 290 291 292 292 293 296 300 302 303 305 307 310 311 312 312 312 312 312 312 312 313 314 314 313 314 314 314 314 315 314 313 312 311 311 312 312 311 311 312 312
277 277 277 276 277 278 279 280 280 280 279 279 278 277 274 272 272 273 272 273 275 276 277 278 279 279 280 280 280 279 280 281 282 282 282 281 281 281 282 282 283 284 286 287 289 290 290 292 292 292 295 300 302 303 304 307 309 310 311 311 312 311 311 311 311 312 312 313 313 314 313 312 313 315 314 313 312 312 311 311 311 311 311 312 312
276 276 276 276 277 278 279 280 279 278 278 278 277 275 272 271 271 272 273 273 275 277 277 277 279 280 280 281 281 280 280 281 282 282 282 282 281 282 283 283 283 284 285 287 289 290 290 292 292 292 295 299 302 303 304 306 309 310 311 311 311 310 311 311 311 311 311 311 311 311 311 310 312 313 314 313 313 313 312 312 311 311 311 311 312
276 276 275 276 277 278 279 279 279 278 277 277 276 274 272 271 271 272 273 275 276 277 277 277 278 279 280 281 282 282 281 281 282 282 282 282 282 283 283 284 284 285 285 287 288 289 290 291 292 292 295 299 302 303 304 305 308 310 311 311 311 311 310 310 311 311 310 309 309 310 310 310 311 312 313 313 313 313 313 312 311 311 311 311 312
275 275 275 275 277 278 278 278 278 277 276 276 276 275 272 271 272 272 273 275 277 276 276 276 277 279 280 282 283 283 283 282 283 283 283 282 283 283 284 284 285 286 286 287 288 289 290 291 292 292 295 299 302 303 304 305 308 311 312 312 312 311 311 310 310 310 310 309 309 309 310 310 311 311 312 312 313 313 313 313 313 312 312 312 312
275 275 275 275 276 277 278 278 277 277 276 276 276 275 273 272 273 273 273 274 275 274 275 276 278 279 280 282 284 284 284 284 284 285 285 285 285 285 285 285 286 286 287 287 288 288 290 291 292 293 295 299 302 303 304 305 307 310 312 312 311 311 311 311 310 309 309 309 309 310 310 311 311 311 311 311 312 312 312 312 313 313 313 313 313
274 274 275 275 276 277 278 278 277 276 276 276 275 274 273 272 273 273 272 273 273 273 274 276 277 278 279 281 283 285 285 285 286 287 287 287 287 287 287 287 287 287 288 288 289 289 290 291 292 293 296 299 301 303 304 305 307 310 311 311 310 310 311 310 309 309 308 308 309 310 311 312 312 312 312 312 312 312 311 311 312 312 312 312 312
274 274 274 275 276 276 277 277 276 276 276 276 275 274 272 272 273 272 271 271 271 271 273 274 274 276 277 280 283 284 285 285 286 287 287 288 288 288 288 289 289 289 289 289 289 290 290 291 292 293 297 300 301 303 304 305 307 309 310 310 309 309 310 309 309 308 308 308 309 311 312 312 312 311 311 311 311 311 311 310 310 311 311 311 310
274 274 274 275 275 276 276 276 276 275 275 276 275 273 271 271 272 271 270 270 270 270 271 272 273 274 275 277 281 284 285 285 287 288 289 289 289 290 290 290 290 290 290 290 290 290 291 292 292 294 297 300 301 302 304 305 306 308 309 309 308 308 309 309 309 308 307 308 310 311 311 311 310 309 309 309 309 309 309 309 309 309 310 309 308
274 274 274 274 275 275 276 276 276 275 275 275 275 274 271 270 270 270 269 269 269 270 270 271 272 274 274 275 278 282 284 286 286 287 289 290 291 291 292 291 291 291 291 291 291 291 291 292 293 295 298 300 300 302 304 306 306 306 308 308 307 307 308 309 308 308 308 309 309 310 310 309 309 309 309 309 309 309 308 308 308 308 308 308 307
273 273 273 274 275 275 275 275 275 276 275 274 274 274 273 270 269 269 269 268 268 269 270 271 272 273 274 274 276 279 282 283 284 286 288 289 290 291 292 293 293 293 292 292 292 292 292 293 294 296 298 300 300 302 304 306 305 305 306 307 307 307 308 308 309 309 309 309 308 308 308 308 308 309 309 309 309 309 308 307 307 307 307 307 307
272 272 273 273 274 274 275 275 275 275 275 274 273 272 272 270 269 268 268 267 267 269 270 270 271 273 273 273 275 277 279 280 281 283 285 287 289 290 292 293 294 294 294 294 294 293 294 294 295 297 298 299 300 302 304 305 305 305 305 305 306 306 307 308 309 309 308 308 307 307 307 307 308 308 309 309 309 309 308 307 307 307 307 307 306
272 272 272 273 273 274 274 274 275 274 275 275 274 273 271 269 268 268 269 268 268 269 269 270 271 272 272 272 274 275 276 277 279 280 283 287 289 291 292 292 293 294 294 295 295 295 295 296 296 297 298 299 300 302 304 304 303 304 304 305 305 305 306 307 307 307 306 306 306 306 307 307 308 308 308 309 309 309 308 308 308 307 307 306 306
272 272 272 272 273 273 273 274 274 274 274 274 275 275 274 272 270 269 270 270 270 270 270 270 271 271 271 272 274 274 274 276 279 282 285 288 290 292 293 293 294 294 295 295 296 296 296 297 297 298 299 299 300 302 303 303 303 303 304 304 305 305 305 306 306 306 306 306 306 307 308 308 307 308 308 308 308 307 307 307 307 307 306 306 305
271 271 272 272 272 272 273 273 273 274 273 273 273 274 275 275 275 273 272 271 271 272 272 272 271 271 270 271 274 276 277 278 281 285 287 289 292 294 294 295 295 295 295 296 296 296 297 297 298 298 299 299 300 302 303 303 303 303 303 303 304 304 305 305 305 305 305 305 306 307 308 309 308 308 307 307 307 306 306 305 306 306 306 306 305
271 271 271 271 271 271 272 273 273 273 273 273 273 273 273 275 276 277 276 274 272 272 273 274 272 271 271 272 273 275 277 279 281 284 287 290 292 294 295 295 295 296 296 296 296 297 298 298 298 299 299 299 301 302 303 303 303 303 303 303 303 304 305 305 304 304 305 305 306 307 308 308 308 308 307 306 306 305 304 304 304 305 305 304 304
270 270 271 271 271 271 271 272 272 272 272 271 272 272 272 272 274 275 277 277 276 275 274 274 273 271 272 273 274 274 276 278 280 284 287 289 292 294 295 296 296 297 297 297 296 297 298 298 298 299 299 300 301 302 303 303 303 303 303 303 303 303 304 304 304 304 304 304 305 306 307 307 307 306 306 305 305 305 305 305 304 303 302 302 302
270 270 270 270 270 270 271 271 272 272 271 271 270 271 271 271 272 272 273 275 276 276 276 275 273 271 271 273 275 276 276 277 279 282 285 288 290 293 295 296 297 297 297 297 297 297 298 298 299 299 299 300 301 302 303 303 303 303 303 303 303 303 303 303 303 303 303 303 303 304 305 306 305 305 305 304 303 303 304 304 303 302 301 301 301
270 270 270 270 270 270 270 270 271 271 271 270 270 270 270 271 272 272 271 271 272 274 275 275 273 271 270 272 274 275 275 276 276 279 282 285 288 291 295 295 295 295 295 295 296 297 298 299 299 300 300 301 301 302 303 303 303 303 303 303 303 303 303 303 303 303 303 303 303 303 304 305 305 305 304 303 302 302 302 302 302 302 301 301 301
270 270 270 270 270 270 270 270 270 270 270 270 270 270 270 271 271 271 271 271 271 272 274 274 273 272 271 272 274 275 275 274 274 276 279 281 284 288 290 289 289 290 291 293 295 297 298 299 299 300 300 301 301 302 303 303 303 303 303 303 303 302 303 303 303 303 303 303 303 303 303 303 304 304 303 303 302 303 302 302 302 301 301 301 301
270 270 270 270 270 270 270 270 270 270 270 270 270 270 270 270 270 270 271 270 270 272 273 274 274 273 273 273 274 275 274 274 276 278 279 280 281 283 282 281 282 285 287 289 292 294 296 297 299 300 300 300 301 301 302 302 302 303 303 303 303 303 303 304 303 303 303 303 303 302 302 303 303 303 303 303 302 302 302 302 302 301 301 301 301
269 269 269 269 269 269 269 269 270 270 270 270 270 270 270 270 270 270 270 270 270 271 271 272 272 272 270 270 272 274 275 277 279 280 279 277 277 277 277 278 280 281 282 285 288 290 292 295 297 298 299 299 300 300 301 301 302 302 302 303 303 303 303 303 303 303 303 303 302 302 302 302 303 303 303 303 303 302 301 301 301 300 299 299 299
269 269 269 269 269 269 269 269 269 269 269 269 269 269 269 270 270 270 270 269 269 270 270 270 271 270 268 267 270 273 274 276 276 275 274 273 273 273 275 278 279 279 280 282 284 286 289 291 293 295 297 298 299 299 300 300 301 302 302 302 302 302 302 302 302 302 302 302 302 302 301 302 302 302 302 303 302 302 301 300 300 299 299 298 298
269 269 269 269 269 269 269 269 269 269 269 269 269 269 269 269 269 269 269 270 270 269 269 269 269 269 267 266 268 271 273 273 273 272 272 272 272 273 275 276 277 277 279 280 281 283 284 286 289 291 294 296 297 298 298 299 299 300 301 302 302 302 302 302 302 302 302 302 302 301 301 301 302 302 301 301 301 301 301 300 299 299 299 299 298
269 269 269 269 268 268 268 268 268 268 268 268 268 268 268 268 268 268 269 269 269 269 269 268 268 269 269 268 269 271 272 272 272 272 272 272 272 273 273 274 275 276 277 278 280 281 281 283 285 287 289 292 294 296 297 297 298 298 299 299 300 300 301 301 301 302 302 302 301 301 302 302 301 301 301 301 301 300 300 299 298 298 297 297 297
268 268 268 268 268 268 268 268 268 268 268 268 268 268 268 268 268 268 268 269 269 269 269 269 269 269 269 269 270 272 272 272 273 273 273 273 273 272 272 273 274 275 275 276 277 278 279 281 283 284 286 289 291 292 294 296 296 297 297 297 298 298 299 299 299 300 300 300 300 301 301 301 301 301 302 301 300 299 299 298 298 297 296 296 296
268 268 268 268 268 268 268 268 268 268 268 268 268 268 268 268 268 268 268 268 268 269 269 269 269 269 269 270 271 271 272 272 272 272 272 272 272 273 273 273 273 274 275 276 276 277 277 279 280 282 284 285 287 288 290 292 294 295 296 296 296 297 297 297 298 298 298 298 299 299 299 299 300 300 300 300 299 299 299 299 298 298 297 296 296
268 267 267 267 268 267 267 268 268 268 267 267 267 268 268 268 268 268 268 268 268 268 268 268 268 269 269 269 270 270 270 271 271 271 271 271 272 272 272 273 274 275 275 276 277 278 278 278 278 280 281 282 284 285 287 288 290 292 293 294 295 296 296 296 296 297 297 297 297 297 297 297 298 297 297 298 298 298 298 298 297 297 297 296 296
268 267 267 267 267 267 267 267 267 267 267 267 267 267 268 267 267 267 267 267 267 268 268 268 268 268 269 269 269 269 269 270 270 270 270 271 271 271 272 273 274 275 275 276 277 278 278 278 279 279 280 281 282 283 284 286 288 289 290 291 293 294 295 295 296 296 296 296 297 297 297 297 297 296 296 296 296 296 297 297 296 296 296 296 295
268 267 267 267 267 267 267 267 267 267 267 267 267 267 267 267 267 267 267 267 267 267 267 267 268 268 268 268 268 268 269 269 269 270 270 270 270 271 271 272 273 274 275 275 276 277 278 278 278 279 280 280 281 282 283 284 286 287 288 289 290 292 293 294 295 295 296 296 296 296 297 297 296 296 296 296 296 296 296 296 296 296 296 295 295
267 267 267 267 267 267 267 267 267 267 267 267 267 267 267 267 267 267 267 267 267 267 267 267 267 267 268 268 268 268 268 268 269 269 269 269 270 270 271 271 272 273 274 275 276 277 277 277 277 278 279 280 280 281 282 283 284 285 286 287 288 290 291 292 293 294 295 295 296 296 296 296 296 296 296 296 296 295 295 295 295 295 295 295 295
267 267 267 267 267 266 267 267 267 267 267 267 267 267 267 267 267 267 267 266 267 267 267 267 267 267 267 267 268 268 268 268 268 269 269 269 269 270 270 271 271 272 273 274 275 276 276 276 276 277 278 278 279 280 281 282 283 284 284 285 286 287 289 291 292 293 293 294 295 295 295 295 296 296 296 296 296 295 295 295 295 295 295 295 295
267 267 267 267 266 266 266 266 267 266 266 266 266 266 266 266 266 266 266 266 266 266 266 266 267 267 267 267 267 268 268 268 268 268 268 269 269 269 270 270 270 271 272 273 274 274 275 275 275 276 276 277 278 278 279 279 280 281 282 283 283 285 287 289 290 291 292 293 293 294 294 295 295 295 295 295 295 295 295 295 295 295 295 295 295
266 266 266 266 266 266 266 266 266 266 266 266 266 266 266 266 266 266 266 266 266 266 266 266 266 266 266 267 267 267 267 268 268 268 268 268 269 269 269 270 270 270 270 271 272 273 274 274 274 274 275 275 276 277 277 277 278 278 279 281 282 283 285 286 287 288 289 290 291 292 292 293 293 293 294 294 294 294 294 295 295 295 295 294 294
266 266 266 266 266 266 266 266 266 266 266 266 266 266 266 266 266 266 266 266 266 266 266 266 266 266 266 266 266 267 267 267 267 267 267 268 268 268 269 269 269 269 269 270 271 272 272 273 273 273 273 274 274 275 276 276 276 277 278 279 280 282 283 284 285 286 287 288 289 290 290 291 292 292 292 292 292 292 293 293 293 293 293 293 293
Wind_Speed
44 46 48 48 50 51 52 52 52 53 53 53 53 53 53 51 50 49 50 50 48 45 44 42 39 37 35 36 36 34 34 33 32 31 29 25 24 24 26 28 29 30 30 30 32 31 29 28 29 36 38 33 35 50 54 51 56 58 60 62 58 58 58 58 56 50 49 55 59 62 65 65 62 60 60 58 56 55 53 52 51 50 53 55 54
45 47 48 49 50 51 53 53 52 53 54 53 53 52 52 50 49 50 49 49 48 45 43 41 39 36 34 36 36 34 33 33 33 32 30 26 23 22 23 25 27 29 29 29 31 30 28 28 28 32 38 36 35 48 58 54 56 58 59 60 57 56 56 56 57 55 52 53 56 61 66 67 65 63 61 60 59 60 59 56 54 53 55 56 55
45 47 48 49 51 51 52 52 53 54 54 54 53 53 53 51 48 49 48 49 49 45 42 40 36 34 32 34 36 35 32 32 33 34 31 26 23 22 22 24 25 27 29 29 29 29 28 28 28 30 33 35 36 46 60 58 58 61 60 60 58 56 56 55 57 59 59 56 56 61 66 66 65 65 62 59 59 61 61 58 56 56 57 57 55
45 47 48 50 51 51 52 52 52 54 55 54 53 53 54 52 48 47 48 50 50 45 42 41 36 32 30 30 31 31 29 30 34 36 33 28 24 21 21 24 27 27 28 28 28 28 29 28 29 29 31 34 36 43 59 60 60 63 62 62 60 57 56 56 57 60 61 60 58 60 66 66 64 65 63 59 59 60 60 58 57 58 58 57 55
45 47 48 50 52 52 51 52 53 54 55 55 53 53 54 51 49 50 49 49 50 46 41 40 37 33 30 28 28 29 29 31 35 37 35 30 26 23 22 23 27 27 27 28 28 27 29 29 29 29 31 34 37 42 59 61 62 64 62 61 62 59 58 56 56 58 60 63 61 58 63 66 65 64 62 61 62 61 60 58 57 58 59 57 55
45 47 48 50 51 51 51 52 53 55 56 56 55 55 54 48 47 53 53 48 46 45 41 39 39 37 34 33 33 34 34 33 36 38 37 33 29 27 25 23 25 27 26 27 28 27 28 30 29 29 33 35 36 43 59 62 61 65 62 62 62 61 60 57 55 57 58 63 64 61 62 65 66 64 61 62 64 63 62 61 58 58 59 58 57
46 47 48 49 50 51 51 53 54 55 56 56 55 54 53 49 45 49 53 48 43 42 41 39 38 39 38 36 35 35 35 34 35 38 39 35 32 30 28 26 27 29 29 29 30 29 28 30 29 29 34 36 35 42 60 64 61 64 64 63 63 62 62 59 56 57 58 61 64 64 64 64 65 66 64 63 64 63 63 63 61 60 61 60 60
46 47 48 49 50 51 52 54 55 56 56 57 57 55 55 56 51 46 47 47 44 41 41 40 39 38 37 36 35 33 32 32 33 36 39 38 34 32 30 28 27 29 30 30 31 30 29 30 31 30 33 36 34 39 59 67 62 62 63 63 64 63 62 62 59 57 59 61 62 64 65 63 61 64 66 65 65 63 63 64 64 65 64 62 61
46 47 48 49 51 52 53 54 56 57 57 57 57 55 52 52 52 47 43 43 45 43 41 41 40 38 37 35 33 30 29 30 31 32 36 37 36 35 33 30 28 29 31 32 32 31 29 30 31 31 32 34 32 35 54 68 65 63 63 62 64 64 62 62 61 59 59 60 60 62 62 62 62 64 67 68 67 65 64 64 64 66 65 62 60
45 47 49 50 52 53 54 56 56 57 57 56 56 54 51 48 48 48 45 43 43 42 42 41 39 38 38 36 33 29 28 30 32 31 32 34 36 37 37 34 33 32 33 33 32 31 30 30 31 30 31 35 32 33 47 66 65 64 66 63 64 65 63 62 62 61 60 59 60 62 61 62 65 66 68 70 68 65 65 65 66 66 64 61 59
46 47 49 50 52 53 54 56 57 56 56 56 55 55 54 51 49 48 48 46 43 40 40 40 39 38 37 36 34 31 30 30 30 30 30 31 33 37 38 38 37 36 34 34 33 31 29 29 29 28 30 35 32 30 41 62 64 61 65 65 66 67 65 64 64 63 63 62 62 65 66 67 69 68 67 69 68 66 67 67 68 68 66 63 60
45 47 48 50 52 53 54 55 56 56 55 56 56 54 54 53 51 49 46 45 43 40 38 38 37 36 36 34 33 32 30 28 27 27 28 29 31 34 38 40 40 38 36 35 34 32 30 29 29 28 30 35 32 28 37 60 65 61 64 66 66 68 67 66 66 64 65 64 63 66 69 70 71 69 68 70 70 69 69 70 71 71 69 66 63
45 46 48 50 51 51 53 55 55 55 55 55 55 55 54 53 52 51 47 43 42 39 38 37 36 35 35 33 32 31 29 27 25 25 26 27 28 30 35 40 42 41 39 37 36 35 32 30 29 28 29 33 30 27 35 58 67 63 66 67 66 67 67 67 67 66 65 66 65 67 70 71 72 73 73 73 72 71 71 72 73 73 70 68 65
44 46 48 49 50 51 53 54 55 55 55 56 56 55 55 54 52 51 48 44 42 39 36 35 34 33 34 33 33 32 29 26 24 24 25 25 26 27 31 35 39 41 41 39 39 37 35 32 31 29 28 30 28 25 33 55 67 65 66 67 66 66 66 65 66 65 64 65 65 66 69 70 71 73 75 75 75 74 75 75 75 73 70 67 64
44 46 47 48 49 50 52 54 55 56 56 57 57 56 55 54 53 50 46 42 40 38 35 32 32 31 32 32 32 32 30 26 23 24 25 25 24 26 30 33 37 40 41 41 41 40 38 35 34 30 27 28 26 23 30 51 66 65 64 66 66 65 65 65 66 65 64 65 65 65 67 68 67 69 75 77 76 75 75 75 74 71 67 63 59
44 45 47 48 49 50 52 54 55 56 57 58 59 58 56 54 52 49 46 41 38 36 32 30 30 31 30 30 31 32 30 27 24 24 25 25 24 25 29 33 37 40 42 42 42 42 40 38 35 32 28 28 25 22 30 49 63 65 65 66 65 64 65 66 66 66 65 65 65 63 63 63 62 65 72 76 73 72 71 69 67 66 63 59 56
43 45 46 47 48 49 51 53 55 56 57 57 59 58 57 55 51 47 45 43 39 34 31 29 29 30 31 31 31 31 30 26 25 25 25 25 26 27 29 31 35 39 42 41 41 42 42 40 36 33 31 30 25 21 32 50 61 65 66 66 64 64 65 65 66 66 65 63 63 61 60 60 61 64 70 72 71 72 71 68 68 68 64 60 58
43 44 45 46 47 48 50 52 54 55 56 57 58 58 56 54 51 45 42 42 39 34 31 30 30 30 31 31 31 31 30 26 24 25 24 23 24 26 29 30 33 36 39 39 39 41 43 40 37 34 33 32 26 21 32 50 61 65 66 66 65 65 65 66 66 64 62 61 61 61 59 59 61 64 68 71 72 73 74 73 73 72 67 64 62
42 43 45 45 46 47 48 51 53 54 55 56 56 56 54 51 48 43 39 37 35 33 32 32 33 32 32 31 30 30 30 26 24 24 23 22 24 26 27 29 32 35 37 38 38 40 42 39 35 34 34 32 27 22 32 49 61 65 66 65 65 66 67 68 68 65 62 60 61 62 61 60 62 63 66 70 71 72 73 74 75 74 69 65 63
41 42 43 44 45 45 47 49 52 52 53 54 54 54 51 48 45 41 37 34 32 31 33 35 35 33 32 32 31 29 28 25 23 22 21 22 25 26 27 29 31 33 35 38 39 41 42 38 34 34 33 31 28 24 31 48 61 65 65 65 67 68 67 67 67 67 65 62 61 62 62 61 62 63 65 69 71 70 70 71 73 74 71 66 65
40 41 42 43 44 44 45 47 51 51 51 52 53 52 49 45 42 39 37 34 31 31 35 36 36 35 33 33 33 28 23 20 18 17 18 20 23 25 27 29 30 30 32 36 39 42 42 39 35 33 31 31 30 26 32 48 60 63 64 65 66 68 66 64 64 63 64 63 62 61 61 60 61 63 66 70 72 71 72 71 71 72 73 71 70
39 40 41 42 43 44 45 46 49 51 50 50 52 51 48 43 39 37 36 34 33 35 37 36 36 37 34 33 34 28 19 16 14 13 13 15 18 21 25 28 28 28 30 33 36 40 42 39 35 32 30 31 32 29 34 48 60 64 64 65 64 65 65 63 62 61 61 62 61 60 60 60 60 61 63 65 66 69 72 73 72 72 73 73 71
38 39 40 41 42 43 44 46 48 50 50 50 50 51 48 43 39 36 35 35 36 38 39 38 38 39 36 34 33 29 19 15 13 12 12 13 15 16 19 23 25 27 30 32 34 36 38 37 34 31 29 31 33 32 35 49 62 65 63 62 62 63 63 62 61 61 60 60 61 61 60 60 59 58 58 57 57 60 64 65 64 63 61 60 58
37 38 39 40 41 42 43 45 47 49 50 50 50 50 48 43 39 37 36 37 39 41 43 42 41 42 40 36 32 29 24 20 18 16 15 15 17 18 17 19 22 25 29 31 32 33 35 34 32 29 29 31 33 32 35 49 63 65 62 62 62 62 62 61 61 61 61 60 62 62 61 60 59 58 57 56 54 54 55 54 53 53 51 49 48
36 37 38 39 40 41 43 44 46 48 49 50 50 50 48 43 38 38 37 37 39 43 44 43 42 42 42 39 33 28 26 25 24 23 21 18 17 19 20 20 21 24 28 31 32 33 34 33 30 28 28 29 30 30 34 49 62 65 63 62 60 59 60 62 62 61 61 62 64 64 63 62 60 59 59 58 56 54 53 51 51 50 49 48 48
35 36 37 38 39 41 42 44 45 47 48 49 49 47 47 43 39 38 38 38 40 43 43 41 41 42 41 39 36 30 25 23 23 24 23 21 18 17 18 20 23 25 28 32 33 34 34 32 29 28 29 28 27 29 35 48 60 62 61 62 61 59 61 63 63 63 64 65 65 65 64 63 62 61 60 58 57 55 53 51 52 51 51 53 54
34 35 36 37 38 40 41 43 44 46 48 50 49 47 45 44 40 38 38 40 41 43 41 39 40 42 41 38 35 31 26 25 24 23 21 21 21 20 17 17 20 24 28 32 34 34 34 33 29 28 29 28 27 30 36 48 58 60 58 59 61 62 63 65 65 66 68 67 65 64 63 63 62 61 60 59 58 56 54 52 52 53 55 57 59
33 34 35 36 37 38 40 41 43 45 46 48 49 48 47 45 42 38 37 38 40 40 38 37 38 40 39 37 35 32 29 28 28 28 25 21 20 21 21 18 17 21 26 31 34 34 34 33 31 29 29 28 28 32 39 49 56 58 56 58 61 62 64 66 66 66 66 65 63 61 60 61 61 60 59 58 58 58 58 57 56 57 58 60 59
31 33 34 35 36 37 38 39 41 43 45 46 47 47 46 46 45 40 35 33 33 33 33 34 35 37 35 32 32 33 33 33 31 29 27 25 22 21 23 23 22 21 23 25 29 32 33 34 32 31 30 30 30 35 41 48 52 55 56 58 60 60 62 64 64 62 62 61 62 61 61 61 61 60 60 59 59 61 63 63 62 60 59 60 60
31 32 33 34 36 36 37 38 39 41 44 45 46 46 45 44 45 43 38 32 28 25 24 26 30 34 32 28 25 26 29 31 29 26 25 26 25 23 22 24 24 24 23 21 23 28 32 34 34 32 32 33 33 37 42 47 50 54 56 58 60 61 61 63 63 62 61 62 63 64 63 62 61 61 61 61 61 62 64 63 61 59 58 59 59
30 31 32 33 34 35 36 37 38 39 41 43 46 48 47 45 44 43 41 36 31 26 22 21 26 31 31 27 23 20 19 22 23 22 23 25 25 23 22 22 24 24 23 21 22 27 31 33 34 35 35 35 36 39 43 47 52 56 58 59 61 62 63 63 62 61 61 62 64 64 63 63 63 63 63 63 62 62 62 60 59 59 59 58 59
29 30 31 32 33 33 34 35 36 38 40 42 44 46 49 50 47 45 44 41 37 32 27 26 29 33 31 27 25 22 20 20 20 18 18 20 22 22 21 21 22 24 24 23 25 28 31 34 36 37 38 38 39 41 44 48 52 56 58 59 59 61 63 64 63 62 63 63 63 63 63 64 63 63 63 62 61 61 60 59 60 60 60 59 59
27 29 30 30 31 32 33 34 35 37 39 41 43 44 47 49 50 50 48 45 41 37 34 33 35 38 34 29 26 26 25 23 20 17 14 15 19 21 20 19 20 22 24 26 27 29 31 34 37 39 40 41 41 43 46 49 52 55 58 59 60 61 61 62 62 62 62 62 61 62 63 63 63 62 61 61 61 61 61 61 61 61 60 60 60
25 26 28 29 30 31 32 32 33 35 36 39 41 42 43 45 47 50 53 53 50 46 44 42 44 45 42 35 29 28 28 27 25 21 15 10 9 13 17 18 18 19 21 24 27 29 32 35 38 39 40 41 42 44 46 49 51 54 56 58 59 59 58 57 58 59 60 59 58 59 61 62 62 61 60 60 60 60 60 62 62 62 62 62 60
23 24 25 27 28 29 30 31 31 33 34 36 38 40 41 42 44 47 50 54 55 53 51 50 51 53 50 43 35 32 32 32 31 26 20 16 8 4 11 12 12 11 12 15 20 25 29 34 37 38 40 41 42 44 47 48 50 53 55 56 56 56 56 57 59 60 60 58 56 57 59 61 61 61 61 60 60 60 60 61 62 63 63 62 60
22 23 24 25 26 27 28 29 30 31 32 34 36 38 39 41 43 45 46 49 51 52 51 52 53 55 54 50 43 36 35 37 36 31 29 27 19 11 11 16 18 15 12 12 15 19 23 28 31 34 37 40 41 43 46 48 49 51 54 55 55 55 56 59 60 60 60 59 58 57 58 59 60 60 60 60 60 61 61 61 61 62 62 61 60
21 22 23 24 25 25 26 27 28 29 31 32 34 36 38 40 41 43 45 48 49 50 51 53 55 56 58 58 53 46 41 38 33 29 31 33 31 29 30 31 28 24 21 16 13 13 16 21 25 27 31 35 39 41 44 47 48 50 52 53 54 56 57 59 60 60 60 59 58 57 57 59 60 60 60 60 60 60 60 60 61 61 61 60 59
20 21 22 23 23 24 25 26 27 28 29 31 33 35 37 38 40 42 44 46 48 49 51 53 56 58 59 59 57 54 49 42 35 33 37 40 40 40 39 36 33 31 29 24 19 16 13 14 18 22 25 28 32 36 40 43 46 48 50 52 54 55 57 57 58 59 59 59 58 57 57 58 59 60 60 60 60 60 59 59 59 59 58 59 59
18 19 20 21 22 23 24 25 26 27 29 31 32 34 36 37 39 42 44 44 46 49 50 51 54 56 56 56 56 57 56 53 49 49 49 49 48 46 42 39 37 36 33 30 27 22 18 14 13 16 21 24 27 30 34 38 42 45 48 50 51 53 54 55 56 57 58 58 57 57 57 57 58 59 60 60 60 60 59 58 58 58 59 60 61
16 17 19 19 21 22 22 24 25 26 28 29 31 33 35 37 39 41 42 43 45 47 48 49 51 53 53 53 54 55 57 57 56 55 53 52 51 49 47 44 42 40 37 35 32 29 25 20 16 14 16 19 23 27 30 33 36 40 44 47 49 51 52 53 55 56 57 57 57 57 57 58 58 58 58 59 59 59 59 58 58 58 59 60 61
15 16 17 18 19 20 21 22 24 25 26 28 29 31 33 35 36 38 39 41 43 44 45 46 47 48 49 49 49 51 53 55 56 55 55 54 54 52 51 49 46 43 41 38 36 34 31 27 22 18 16 16 18 22 26 29 31 33 37 40 44 47 49 51 52 54 55 56 56 57 58 58 58 58 59 59 58 57 56 56 55 55 55 56 56
14 15 16 17 18 19 20 21 22 23 24 25 27 29 31 32 34 35 37 39 40 41 42 43 43 44 45 46 46 48 50 52 53 54 55 55 54 53 52 50 48 46 44 41 39 37 35 31 28 24 20 17 16 17 20 24 27 29 31 33 35 38 42 45 48 50 51 52 53 55 56 57 58 59 60 59 58 55 54 53 53 52 52 52 52
12 14 15 16 17 18 19 20 21 22 23 24 26 27 28 30 31 33 35 37 38 39 40 41 42 42 43 43 45 47 49 50 51 52 53 54 54 53 52 50 47 45 44 42 41 40 39 37 33 29 26 23 19 17 16 17 20 23 26 28 30 32 34 37 40 43 45 47 48 49 51 53 54 55 56 56 56 56 56 55 55 54 53 52 51
11 12 14 15 16 17 18 19 20 21 22 23 24 25 26 28 29 31 33 34 35 37 38 39 40 41 42 43 45 47 48 48 49 49 50 50 51 51 50 48 46 44 43 42 41 40 41 40 38 35 32 29 25 21 18 16 16 18 20 22 26 29 31 33 35 38 40 43 44 44 45 46 48 49 50 51 52 53 54 54 54 54 54 53 51
10 11 12 13 14 15 16 17 19 20 20 21 23 24 25 26 28 29 31 32 33 35 36 37 38 40 41 42 44 45 45 46 46 46 47 47 48 48 48 47 45 44 44 43 41 40 41 41 40 39 37 34 31 28 24 20 17 15 14 15 19 23 26 29 32 35 37 39 41 42 42 42 43 44 46 47 48 49 50 51 51 51 51 51 51
8 10 11 12 13 14 15 16 17 18 19 21 22 23 24 25 27 28 29 30 31 33 34 35 36 37 38 40 41 42 42 43 43 44 44 44 44 45 45 45 44 44 43 42 41 41 42 42 41 40 39 38 35 33 31 27 24 20 16 13 12 14 18 22 26 30 33 35 37 39 40 40 41 41 42 44 44 45 46 47 47 48 48 48 49
7 8 10 11 12 13 14 15 16 17 18 20 21 23 24 25 26 27 27 28 29 30 31 33 34 35 36 38 39 39 40 40 40 41 42 42 42 42 43 43 43 43 42 40 40 41 42 43 42 41 40 39 37 35 34 31 29 26 23 19 15 11 9 11 16 21 25 29 32 34 36 38 39 39 39 40 41 42 42 42 43 44 44 44 44
7 7 9 10 11 12 13 14 14 16 17 18 20 21 23 24 25 26 27 27 28 29 30 31 32 33 34 35 36 36 36 37 37 38 39 39 40 40 40 41 42 42 40 39 39 41 42 42 42 42 41 40 39 38 36 34 31 29 27 25 21 16 11 9 9 11 15 19 23 26 29 32 34 35 36 37 38 39 40 41 42 42 42 42 42
6 7 8 9 10 11 12 13 14 15 16 17 18 20 21 22 23 24 25 26 27 28 29 29 30 31 31 32 33 34 34 35 36 37 37 37 38 38 39 39 40 41 40 40 40 40 40 41 41 41 41 41 40 40 39 38 35 32 29 26 23 20 16 14 12 10 9 11 15 18 21 25 28 30 31 32 33 35 36 38 39 40 40 40 40
6 6 7 8 9 11 12 12 13 14 14 15 16 18 19 20 21 22 23 24 25 26 27 28 28 29 30 30 31 32 33 34 34 35 35 35 36 36 37 38 39 40 41 40 39 38 38 39 40 41 40 40 40 40 40 40 39 36 32 28 24 22 20 18 16 14 11 10 11 11 13 16 19 22 23 25 26 28 30 32 33 35 36 37 38
6 6 7 8 9 10 11 11 12 12 13 14 15 16 17 18 20 20 22 22 23 25 25 26 26 27 28 28 29 30 31 32 32 33 33 34 34 35 36 37 38 39 39 39 38 37 37 37 38 40 40 40 39 38 38 38 38 36 34 32 29 26 24 22 20 18 15 13 11 10 10 11 13 15 16 17 19 20 22 24 26 27 29 30 31
Wind_Direction
332 331 331 332 331 331 332 333 333 333 331 330 329 328 327 323 319 317 316 316 315 312 308 303 297 291 281 275 278 279 273 261 254 260 267 271 271 267 262 258 265 273 275 277 275 272 267 256 257 259 253 259 249 217 202 198 196 192 189 188 190 191 189 187 183 179 182 188 188 185 184 184 184 186 186 185 187 191 194 194 192 190 186 182 180
332 331 331 332 332 332 333 333 333 333 332 331 329 328 326 322 319 318 317 317 317 313 311 306 299 293 284 275 276 277 272 261 253 259 266 268 269 269 264 256 260 269 272 275 275 272 268 257 254 258 253 256 249 217 203 200 196 192 191 189 189 190 189 187 185 180 179 185 188 186 185 187 187 188 189 187 188 190 192 192 191 190 187 183 181
332 331 331 332 332 333 334 334 333 334 334 332 331 330 328 325 321 319 316 317 318 314 313 310 302 295 288 278 275 274 270 260 254 258 262 263 266 270 271 263 258 265 271 275 275 271 270 259 250 255 252 254 253 221 203 201 198 194 195 195 194 192 190 190 188 183 180 183 187 187 186 188 189 190 191 191 191 191 190 190 189 189 187 184 183
331 331 332 332 333 334 334 334 333 335 335 334 332 331 330 326 321 319 316 315 317 316 313 312 308 301 294 287 282 279 273 261 253 255 257 256 259 263 273 272 263 264 269 275 277 272 272 264 251 251 248 251 255 226 204 201 200 197 198 198 197 194 191 193 194 190 184 182 186 189 188 189 191 190 190 191 192 192 191 189 189 188 186 186 185
332 332 333 332 333 334 334 334 335 336 336 335 334 333 332 327 321 321 320 315 315 317 315 310 306 301 293 287 281 274 268 259 251 251 252 251 252 253 261 268 266 267 267 272 277 273 273 268 255 250 245 249 256 229 204 200 200 199 199 198 197 195 192 193 196 196 191 185 184 187 188 189 190 189 190 191 190 190 190 189 189 188 186 186 186
333 333 333 333 333 334 335 336 337 338 337 336 336 334 332 327 318 315 319 320 316 317 317 308 301 299 295 287 278 270 265 260 252 250 249 248 249 249 251 255 259 266 268 269 274 273 272 269 259 251 243 244 253 230 206 200 200 199 200 198 196 195 193 193 195 196 194 190 186 185 185 187 188 188 190 192 191 189 189 188 188 189 188 187 188
333 334 334 333 333 334 337 338 339 339 338 336 336 334 331 328 323 315 316 322 322 317 317 311 303 302 301 296 290 281 273 264 256 252 249 247 247 246 247 248 250 258 263 265 270 270 271 268 260 252 240 239 250 231 207 201 201 199 199 199 196 195 194 193 194 193 191 188 186 185 186 186 187 187 190 192 192 190 188 186 185 188 190 189 190
334 334 334 333 335 337 338 340 340 340 339 337 337 336 333 330 330 325 319 321 324 321 319 317 310 304 300 297 294 289 281 270 260 255 251 248 246 244 244 245 247 255 260 261 265 266 267 266 259 252 240 236 248 234 208 201 201 199 199 198 196 196 194 193 193 191 189 186 184 184 186 185 184 185 186 188 189 189 190 188 186 188 190 191 193
334 334 334 335 337 339 340 341 342 340 339 338 336 336 333 328 327 329 326 324 325 324 321 318 312 306 302 299 293 289 283 274 265 259 253 249 246 244 243 243 243 249 254 256 260 262 263 264 259 253 241 232 243 240 212 201 201 200 198 197 195 195 194 192 191 190 188 185 183 182 183 184 183 182 183 186 188 189 190 190 189 190 190 192 195
335 335 336 338 339 341 341 341 342 341 339 338 337 336 335 333 332 332 331 328 326 323 320 317 313 308 306 303 297 288 279 272 265 261 256 251 248 244 242 242 241 243 249 252 256 259 259 262 261 254 241 229 239 246 218 204 202 202 200 199 197 195 194 191 190 190 188 185 183 182 181 183 185 186 187 189 189 190 190 190 192 192 191 194 196
337 338 338 340 341 342 343 341 341 341 339 339 339 338 337 337 337 335 332 329 326 321 317 316 313 310 307 304 301 293 283 275 267 263 259 251 248 247 244 244 243 244 247 251 255 259 258 261 263 257 242 228 236 251 225 207 205 206 204 203 203 201 198 193 189 189 190 187 186 186 186 186 188 190 191 189 189 190 191 192 193 192 192 195 197
338 339 340 342 343 343 343 341 340 341 341 341 341 340 338 337 337 337 333 329 325 320 316 314 311 309 307 303 301 296 289 281 270 264 260 252 248 248 245 245 246 246 248 251 255 260 259 262 263 256 242 229 235 255 232 209 207 210 208 207 206 206 206 203 197 193 192 191 189 190 191 190 189 190 192 191 190 191 191 193 195 194 193 195 197
339 340 342 343 344 344 343 340 341 342 343 343 341 341 341 340 339 339 335 329 325 320 316 314 310 309 307 304 302 298 291 283 272 263 259 252 250 251 248 247 248 248 249 251 254 258 258 262 265 256 241 230 235 253 232 209 206 211 210 207 206 206 208 210 208 204 201 197 195 194 195 194 191 191 195 195 193 191 191 193 195 195 195 196 197
341 342 343 344 344 344 343 340 341 344 345 345 344 343 343 342 340 340 336 330 326 322 317 313 309 308 308 306 304 301 293 283 273 264 258 253 251 252 250 249 249 249 249 249 251 255 256 259 266 260 241 230 235 248 231 208 203 205 205 203 204 205 205 207 209 209 208 206 204 202 199 199 198 196 196 197 196 194 193 193 194 196 197 197 199
342 343 343 344 345 345 343 341 343 346 347 347 345 344 344 343 342 341 337 331 328 324 319 315 310 309 309 307 304 300 294 287 276 265 257 253 253 254 251 249 247 246 247 247 248 252 254 257 265 263 244 230 232 243 231 209 200 199 200 200 202 204 204 205 207 208 210 210 210 208 203 201 202 200 197 196 197 197 195 194 194 195 196 197 198
344 344 344 345 346 346 344 343 345 348 350 349 346 344 344 344 343 341 337 333 330 326 323 318 314 312 311 309 304 298 294 289 280 269 258 251 251 253 252 251 248 245 244 245 247 250 253 255 261 261 246 232 231 238 229 211 200 197 198 199 201 204 205 207 208 210 212 211 210 210 208 204 203 202 199 196 196 197 196 194 194 194 195 196 197
344 345 345 345 346 347 346 346 347 349 351 350 347 345 345 344 344 342 338 335 333 330 327 324 321 319 316 313 307 301 295 289 281 273 261 250 246 247 249 250 249 244 242 243 245 248 251 252 257 259 247 233 230 232 223 210 200 196 196 197 199 202 203 204 205 207 211 212 210 209 210 207 204 203 200 197 198 199 197 194 195 196 195 195 197
345 344 345 346 347 348 348 347 350 351 352 351 348 346 344 342 341 340 339 336 334 333 333 331 329 327 323 320 314 306 298 291 283 274 261 251 248 250 250 250 247 242 239 240 244 247 249 250 252 255 247 233 228 226 217 208 200 196 194 194 196 199 200 199 199 200 204 208 208 208 209 209 206 203 201 200 201 201 200 198 197 197 196 196 198
345 345 346 347 348 349 349 349 352 354 353 351 349 345 342 339 338 339 339 337 335 335 338 337 334 331 328 326 322 311 299 291 284 274 260 250 249 249 250 249 246 241 235 235 240 244 246 247 248 250 246 234 225 222 216 207 200 196 194 194 195 198 199 199 199 199 200 202 202 204 207 208 207 205 203 202 203 204 205 204 201 198 196 196 199
345 346 346 347 348 350 351 351 354 355 354 352 350 346 343 340 338 339 339 338 336 337 341 341 336 334 333 332 329 317 302 290 281 272 260 250 246 245 246 245 243 241 236 235 238 242 244 245 247 248 245 233 221 219 217 209 201 197 196 196 198 199 199 199 201 202 202 200 199 200 203 205 206 206 205 203 203 205 207 208 206 203 199 197 200
346 346 347 348 349 351 353 354 356 357 356 354 351 349 347 344 341 342 342 340 340 342 344 343 340 339 339 339 336 326 306 289 278 266 256 250 245 243 244 243 240 240 240 238 240 243 245 247 248 248 243 231 219 217 219 212 204 199 201 204 203 201 198 198 199 200 200 199 197 198 200 202 204 205 205 203 202 203 205 208 211 210 206 203 203
346 346 347 348 350 352 355 357 358 358 359 357 353 351 350 348 346 346 346 347 349 348 346 345 344 344 345 344 342 334 311 289 283 274 263 258 252 245 245 245 241 238 240 242 242 244 245 247 249 247 240 229 221 220 221 213 206 204 207 208 204 200 199 198 197 196 196 196 196 197 199 200 202 203 203 202 203 204 204 206 208 211 212 211 211
347 347 348 349 351 354 356 359 0 360 1 1 357 353 353 352 351 351 351 353 354 351 349 349 348 347 347 346 346 341 321 292 285 290 288 279 270 260 251 247 243 239 239 241 242 244 245 246 246 244 238 228 222 223 222 213 207 207 208 204 200 200 200 198 196 194 194 194 195 196 197 198 198 198 199 200 201 203 204 204 206 208 211 214 215
347 348 350 350 352 355 358 1 2 1 4 5 1 356 356 356 354 354 356 358 357 354 353 351 348 349 348 344 344 345 333 309 288 284 282 274 270 270 264 254 245 240 240 243 243 244 245 244 243 241 236 228 224 225 221 213 209 207 205 202 200 199 198 196 195 193 192 191 192 194 195 196 196 196 198 198 198 200 202 205 206 207 209 212 213
349 349 351 352 353 355 359 3 4 3 6 10 7 0 358 360 359 357 359 0 359 357 354 348 346 349 348 342 340 342 339 325 308 297 289 275 262 259 258 253 246 239 238 242 244 244 244 244 243 240 235 229 228 229 224 214 208 206 204 202 199 196 196 196 195 192 190 190 192 194 195 197 198 200 201 201 201 203 205 208 210 210 210 212 212
350 351 352 354 356 357 360 3 5 5 7 12 14 8 3 3 4 1 1 1 0 359 352 345 346 350 345 339 338 339 339 337 329 320 313 302 289 274 258 250 246 241 239 241 243 245 246 246 242 238 233 228 228 231 225 214 208 204 202 200 198 196 195 194 193 192 193 194 195 196 198 199 200 201 202 202 203 204 205 207 208 207 207 210 212
352 353 354 356 357 360 1 2 4 6 8 11 15 15 10 8 7 5 4 2 360 357 350 344 349 351 343 336 337 339 341 342 337 329 322 313 305 296 282 261 247 242 242 242 242 243 244 243 240 236 231 225 226 231 224 213 206 202 199 197 197 197 197 197 197 198 199 198 198 199 199 199 200 201 201 202 203 203 203 204 203 204 207 211 214
354 355 356 357 360 2 4 3 4 7 9 11 14 16 16 14 12 11 10 5 358 353 349 349 353 351 342 336 338 340 341 341 337 330 321 310 300 291 283 272 256 244 242 243 242 242 244 243 241 238 231 225 228 231 221 209 203 200 198 197 197 198 198 200 201 201 200 199 199 199 199 200 201 202 202 203 205 204 203 204 205 208 211 212 213
356 358 358 359 2 4 5 5 6 8 9 11 14 17 20 21 18 16 16 13 5 357 354 356 356 352 345 341 342 344 342 338 333 327 314 300 289 281 273 268 262 253 246 245 244 245 244 241 239 235 226 222 227 225 213 204 199 198 198 198 198 197 197 198 199 198 198 198 198 199 201 202 202 203 204 205 206 206 205 206 208 210 212 212 213
357 359 360 1 4 6 6 7 9 10 11 11 11 14 21 27 27 24 22 20 18 13 9 6 3 358 353 348 345 346 344 336 326 315 301 289 283 278 269 262 260 256 248 243 243 243 241 238 235 229 220 217 221 217 206 199 197 197 197 198 197 196 197 198 198 197 196 198 200 202 203 203 202 203 204 205 205 206 207 208 210 211 212 213 213
358 0 1 3 6 7 8 8 10 12 14 13 11 11 14 21 29 32 30 26 23 22 23 24 18 11 5 359 351 343 337 331 322 308 295 285 278 274 265 256 254 251 242 234 234 236 236 234 230 224 216 215 216 212 204 199 198 197 197 197 197 197 197 198 198 196 196 197 200 202 204 205 205 205 205 205 205 206 207 207 209 211 213 214 214
359 1 2 4 6 8 9 10 12 14 16 16 16 14 13 14 18 25 32 33 30 27 28 32 30 22 16 14 11 3 356 349 338 321 304 289 277 271 263 253 248 243 232 225 228 230 229 228 224 218 213 213 213 209 204 201 200 199 198 197 196 197 198 199 197 196 196 197 199 201 204 205 205 206 206 205 206 206 206 206 207 209 211 212 213
1 1 3 5 8 9 9 11 14 17 19 19 18 18 18 17 16 17 23 29 32 32 33 36 34 28 23 23 24 22 19 13 2 350 332 307 286 274 264 250 241 234 223 218 222 226 226 224 220 215 212 211 210 207 204 202 201 200 198 197 197 197 198 199 197 196 197 198 199 200 202 204 204 205 205 206 207 208 207 207 207 208 208 210 211
3 3 4 7 9 9 10 13 16 19 22 22 22 21 21 22 22 20 21 23 25 27 30 36 38 32 26 26 28 29 29 28 24 20 14 356 316 279 257 238 225 222 218 215 218 221 222 221 218 215 213 211 208 206 204 202 201 200 199 198 199 198 198 198 197 197 198 198 198 199 201 203 204 204 204 204 205 206 207 207 207 206 207 209 210
6 5 5 9 11 11 12 14 16 20 23 24 24 23 21 23 25 26 26 26 25 23 25 32 37 35 30 29 31 33 36 37 35 35 40 48 51 240 226 201 178 180 193 202 210 215 217 218 217 215 214 211 207 206 205 203 201 200 199 198 198 197 197 198 199 199 199 199 198 199 201 202 204 205 205 204 203 203 205 206 206 207 209 209 210
7 7 7 10 13 13 13 14 17 21 24 24 25 25 23 24 27 27 28 30 29 26 25 28 34 35 34 34 34 36 40 42 42 45 52 58 67 95 110 98 97 106 124 154 183 197 203 208 212 214 214 212 209 207 206 205 203 201 200 199 198 197 199 200 200 200 200 200 201 201 201 202 204 205 205 205 205 206 207 208 208 209 210 210 211
8 8 9 12 14 14 15 16 19 22 24 24 26 26 25 26 28 28 29 30 31 30 28 28 31 34 34 33 33 36 40 44 48 55 59 62 68 75 73 72 75 81 87 100 128 156 176 190 198 203 208 211 210 209 207 205 204 203 202 201 200 200 202 203 202 201 201 201 202 202 202 204 205 206 206 206 207 207 209 210 210 211 211 212 211
8 8 10 11 13 13 14 16 18 21 23 24 26 26 27 27 28 29 30 31 31 32 31 30 32 33 31 29 30 34 37 41 47 52 52 54 57 60 61 64 70 74 76 80 90 104 129 158 176 185 192 198 203 206 206 205 204 203 203 202 202 203 204 204 203 203 203 203 202 203 204 205 206 207 208 209 209 209 209 210 211 210 209 210 210
8 9 9 10 11 12 14 15 17 20 22 24 26 26 27 27 28 30 30 30 31 33 33 32 34 35 32 28 28 33 37 39 41 44 46 48 50 52 56 62 64 65 68 73 77 84 96 112 136 165 180 185 190 196 199 202 203 204 204 204 204 204 204 204 203 204 204 203 203 204 204 205 206 208 209 210 210 211 210 210 210 210 209 209 210
8 9 9 8 9 10 12 15 17 19 22 24 26 27 28 28 29 30 30 30 31 33 34 33 35 37 36 32 30 34 38 40 40 41 43 46 48 50 53 57 58 59 62 67 69 72 76 85 101 130 158 174 183 188 192 196 199 202 205 205 205 205 206 206 206 206 206 205 204 204 205 206 207 208 209 210 210 211 211 210 210 210 210 211 211
8 8 8 8 9 9 12 14 16 19 22 24 25 28 29 29 30 30 30 30 31 33 34 35 35 37 38 37 35 36 39 41 41 40 41 44 47 49 50 52 54 55 57 61 65 67 67 70 81 97 117 144 165 178 185 189 192 196 200 203 205 206 207 207 208 208 208 207 206 206 207 207 208 208 210 211 211 211 211 211 210 210 210 211 211
6 6 7 7 6 8 12 15 16 18 21 23 25 28 29 30 31 31 31 31 32 32 33 34 35 36 38 38 38 39 40 41 42 41 41 42 44 47 49 51 53 54 54 57 61 65 65 66 70 78 88 105 128 150 168 179 185 189 194 198 201 203 205 207 208 209 209 208 207 208 208 209 209 211 212 212 211 210 210 211 211 211 211 211 211
4 5 6 5 5 8 12 14 15 17 19 22 25 27 29 30 31 32 32 32 32 32 32 33 34 35 36 38 39 40 41 41 41 41 41 41 42 44 47 49 52 55 56 57 59 63 65 66 67 71 75 81 92 109 130 152 170 181 188 193 198 201 203 205 207 208 208 208 208 208 209 209 209 210 210 210 210 210 212 212 212 213 213 212 212
2 5 5 4 5 9 11 13 15 17 19 22 24 26 27 29 30 32 33 33 32 32 32 32 32 33 34 36 39 40 40 40 41 42 42 42 42 42 44 47 50 54 57 59 60 62 64 64 66 69 72 75 79 86 97 115 140 160 174 185 193 198 201 204 206 208 209 210 210 209 209 210 209 208 208 209 209 209 210 211 212 212 212 212 211
358 1 3 3 5 9 11 13 15 17 19 22 24 26 27 28 29 31 32 33 33 33 33 32 32 33 33 35 38 39 40 41 41 42 42 43 43 43 43 44 47 50 53 56 59 62 63 63 64 66 68 71 73 76 80 88 103 123 143 164 180 190 197 202 206 209 211 212 213 213 212 211 211 210 209 210 210 210 210 212 212 212 212 211 211
354 357 360 2 5 9 12 13 14 17 19 21 24 26 28 29 30 31 32 32 32 33 33 33 33 33 34 35 37 38 39 40 41 41 42 42 43 44 44 44 45 47 50 53 56 59 62 63 63 63 64 66 67 69 72 75 80 88 98 115 142 169 185 196 203 208 211 213 215 216 216 215 215 214 214 213 213 212 212 213 213 214 214 214 214
353 353 356 1 5 9 11 13 15 17 19 21 23 25 27 28 30 31 31 32 32 33 33 33 33 33 34 35 36 37 38 39 40 41 42 42 42 43 44 44 45 45 47 50 53 57 59 60 61 62 63 63 64 65 66 68 70 73 76 80 88 107 142 173 192 202 207 210 213 216 218 218 218 218 218 218 218 217 216 216 216 217 217 218 217
351 350 352 359 4 7 9 11 13 15 18 20 21 23 24 26 27 28 29 30 31 32 32 33 33 34 34 35 36 37 38 39 40 41 42 42 42 42 43 44 45 45 44 46 50 54 56 57 57 58 60 61 62 62 62 62 63 65 66 66 66 71 86 116 150 175 191 200 205 209 213 216 217 217 218 219 220 221 221 220 220 220 221 221 221
346 349 352 356 359 2 5 7 9 12 14 16 18 19 20 21 23 25 26 27 29 30 31 32 32 33 34 34 35 36 37 38 40 41 41 42 43 43 43 44 45 45 44 44 46 50 53 55 56 56 56 57 59 60 60 59 58 58 59 59 60 65 75 88 103 119 144 170 183 192 200 205 207 209 210 212 214 216 218 219 221 221 221 221 221
337 346 353 355 356 358 1 2 4 6 8 10 13 14 16 17 19 20 22 23 25 27 29 30 31 32 33 34 34 34 35 36 38 39 40 41 42 43 43 44 45 45 44 43 44 47 50 53 54 55 54 54 56 57 58 58 56 54 54 56 59 64 70 77 83 91 105 125 143 160 177 188 193 195 197 199 203 206 209 211 213 214 215 216 216
330 343 353 355 355 355 356 357 358 1 3 6 8 11 12 14 16 17 18 20 21 23 25 27 29 30 31 32 33 34 34 35 37 38 39 40 41 42 43 44 45 45 44 43 43 45 48 50 53 54 53 53 53 54 56 56 55 54 53 54 56 59 63 68 72 77 84 96 110 126 143 159 169 175 178 182 188 193 197 200 203 204 206 208 209